Location: Lombard
(41.8800°N, 88.0080°W)
Time: 23:10:58
(UTC-05:00)

Tiros 1 - Pass Details

Date: 27 January 2023
Orbit: 628 x 662 km, 48.4° (Epoch: 20 March)

Event Time Altitude Azimuth Distance (km) Brightness Sun altitude
Rises 04:55:29 0° 273° (W) 2,928 - -24.9°
Reaches altitude 10° 04:57:55 10° 281° (W) 2,026 - -24.5°
Maximum altitude 05:02:19 40° 351° (N) 957 - -23.7°
Exits shadow 05:02:23 40° 354° (N) 958 7.9 -23.6°
Drops below altitude 10° 05:06:46 10° 61° (ENE) 2,050 10.5 -22.8°
Sets 05:09:15 0° 69° (ENE) 2,968 11.6 -22.4°
